{"data":{"norad_id":67784,"epoch":"2026-09-20T17:28:18.187392Z","epoch_age_seconds":66519,"freshness":"FRESH","line1":"1 67784U 26030W   26263.72798828  .00002064  00000+0  29975-3 0  9999","line2":"2 67784  51.8982  55.7419 0000626 109.2713 250.8317 14.79927265 34268","mean_motion":14.79927265,"eccentricity":6.26e-5,"inclination_deg":51.8982,"raan_deg":55.7419,"arg_perigee_deg":109.2713,"mean_anomaly_deg":250.8317,"bstar":0.00029975,"rev_number":3426,"period_min":97.302079234279,"perigee_km":629.11505176742,"apogee_km":629.99241464722,"semimajor_km":7007.6907332073,"source":"CELESTRAK","updated_at":"2026-09-21T09:00:16.856194Z"}}